Year,Month,Day,Hour,Minute,Value (Times are PST for temperature in C)
2015,03,28,00,00,9.20
2015,03,28,00,01,9.20
2015,03,28,00,02,9.20
2015,03,28,00,03,9.20
2015,03,28,00,04,9.20
2015,03,28,00,05,9.20
2015,03,28,00,06,9.20
2015,03,28,00,07,9.20
2015,03,28,00,08,9.20
2015,03,28,00,09,9.10
2015,03,28,00,10,9.00
2015,03,28,00,11,9.00
2015,03,28,00,12,8.90
2015,03,28,00,13,8.90
2015,03,28,00,14,8.90
2015,03,28,00,15,9.00
2015,03,28,00,16,9.20
2015,03,28,00,17,9.40
2015,03,28,00,18,9.40
2015,03,28,00,19,9.50
2015,03,28,00,20,9.50
2015,03,28,00,21,9.50
2015,03,28,00,22,9.50
2015,03,28,00,23,9.50
2015,03,28,00,24,9.50
2015,03,28,00,25,9.40
2015,03,28,00,26,9.40
2015,03,28,00,27,9.30
2015,03,28,00,28,9.30
2015,03,28,00,29,9.30
2015,03,28,00,30,9.40
2015,03,28,00,31,9.40
2015,03,28,00,32,9.50
2015,03,28,00,33,9.50
2015,03,28,00,34,9.60
2015,03,28,00,35,9.70
2015,03,28,00,36,9.70
2015,03,28,00,37,9.80
2015,03,28,00,38,9.80
2015,03,28,00,39,9.80
2015,03,28,00,40,9.80
2015,03,28,00,41,9.70
2015,03,28,00,42,9.70
2015,03,28,00,43,9.70
2015,03,28,00,44,9.70
2015,03,28,00,45,9.80
2015,03,28,00,46,9.80
2015,03,28,00,47,9.90
2015,03,28,00,48,9.90
2015,03,28,00,49,10.00
2015,03,28,00,50,10.10
2015,03,28,00,51,10.10
2015,03,28,00,52,10.20
2015,03,28,00,53,10.20
2015,03,28,00,54,10.30
2015,03,28,00,55,10.40
2015,03,28,00,56,10.40
2015,03,28,00,57,10.60
2015,03,28,00,58,10.60
2015,03,28,00,59,10.70
2015,03,28,01,00,10.80
2015,03,28,01,01,10.80
2015,03,28,01,02,10.80
2015,03,28,01,03,10.80
2015,03,28,01,04,10.80
2015,03,28,01,05,10.80
2015,03,28,01,06,10.80
2015,03,28,01,07,10.70
2015,03,28,01,08,10.70
2015,03,28,01,09,10.60
2015,03,28,01,10,10.60
2015,03,28,01,11,10.50
2015,03,28,01,12,10.40
2015,03,28,01,13,10.30
2015,03,28,01,14,10.20
2015,03,28,01,15,10.10
2015,03,28,01,16,10.10
2015,03,28,01,17,10.00
2015,03,28,01,18,9.90
2015,03,28,01,19,9.90
2015,03,28,01,20,9.90
2015,03,28,01,21,9.80
2015,03,28,01,22,9.80
2015,03,28,01,23,9.80
2015,03,28,01,24,9.80
2015,03,28,01,25,9.70
2015,03,28,01,26,9.70
2015,03,28,01,27,9.70
2015,03,28,01,28,9.80
2015,03,28,01,29,9.80
2015,03,28,01,30,9.80
2015,03,28,01,31,9.80
2015,03,28,01,32,9.80
2015,03,28,01,33,9.80
2015,03,28,01,34,9.90
2015,03,28,01,35,9.90
2015,03,28,01,36,9.90
2015,03,28,01,37,9.80
2015,03,28,01,38,9.80
2015,03,28,01,39,9.80
2015,03,28,01,40,9.80
2015,03,28,01,41,9.80
2015,03,28,01,42,9.90
2015,03,28,01,43,9.90
2015,03,28,01,44,9.90
2015,03,28,01,45,9.90
2015,03,28,01,46,9.90
2015,03,28,01,47,9.90
2015,03,28,01,48,9.90
2015,03,28,01,49,9.90
2015,03,28,01,50,9.90
2015,03,28,01,51,9.90
2015,03,28,01,52,9.90
2015,03,28,01,53,9.90
2015,03,28,01,54,9.90
2015,03,28,01,55,9.90
2015,03,28,01,56,9.90
2015,03,28,01,57,9.80
2015,03,28,01,58,9.80
2015,03,28,01,59,9.80
2015,03,28,02,00,9.80
2015,03,28,02,01,9.70
2015,03,28,02,02,9.70
2015,03,28,02,03,9.60
2015,03,28,02,04,9.60
2015,03,28,02,05,9.60
2015,03,28,02,06,9.60
2015,03,28,02,07,9.60
2015,03,28,02,08,9.60
2015,03,28,02,09,9.60
2015,03,28,02,10,9.50
2015,03,28,02,11,9.50
2015,03,28,02,12,9.50
2015,03,28,02,13,9.50
2015,03,28,02,14,9.50
2015,03,28,02,15,9.50
2015,03,28,02,16,9.50
2015,03,28,02,17,9.50
2015,03,28,02,18,9.50
2015,03,28,02,19,9.50
2015,03,28,02,20,9.50
2015,03,28,02,21,9.50
2015,03,28,02,22,9.50
2015,03,28,02,23,9.60
2015,03,28,02,24,9.60
2015,03,28,02,25,9.50
2015,03,28,02,26,9.60
2015,03,28,02,27,9.60
2015,03,28,02,28,9.60
2015,03,28,02,29,9.70
2015,03,28,02,30,9.70
2015,03,28,02,31,9.80
2015,03,28,02,32,9.80
2015,03,28,02,33,9.80
2015,03,28,02,34,9.90
2015,03,28,02,35,10.00
2015,03,28,02,36,10.20
2015,03,28,02,37,10.50
2015,03,28,02,38,10.70
2015,03,28,02,39,10.80
2015,03,28,02,40,10.90
2015,03,28,02,41,10.90
2015,03,28,02,42,10.90
2015,03,28,02,43,10.90
2015,03,28,02,44,10.90
2015,03,28,02,45,10.90
2015,03,28,02,46,10.90
2015,03,28,02,47,10.90
2015,03,28,02,48,10.80
2015,03,28,02,49,10.80
2015,03,28,02,50,10.80
2015,03,28,02,51,10.80
2015,03,28,02,52,10.80
2015,03,28,02,53,10.80
2015,03,28,02,54,10.80
2015,03,28,02,55,10.70
2015,03,28,02,56,10.70
2015,03,28,02,57,10.70
2015,03,28,02,58,10.70
2015,03,28,02,59,10.80
2015,03,28,03,00,10.80
2015,03,28,03,01,10.80
2015,03,28,03,02,10.80
2015,03,28,03,03,10.90
2015,03,28,03,04,10.90
2015,03,28,03,05,10.90
2015,03,28,03,06,10.90
2015,03,28,03,07,11.00
2015,03,28,03,08,11.00
2015,03,28,03,09,11.00
2015,03,28,03,10,11.00
2015,03,28,03,11,11.10
2015,03,28,03,12,11.10
2015,03,28,03,13,11.10
2015,03,28,03,14,11.10
2015,03,28,03,15,11.10
2015,03,28,03,16,11.10
2015,03,28,03,17,11.20
2015,03,28,03,18,11.20
2015,03,28,03,19,11.20
2015,03,28,03,20,11.20
2015,03,28,03,21,11.20
2015,03,28,03,22,11.20
2015,03,28,03,23,11.30
2015,03,28,03,24,11.30
2015,03,28,03,25,11.30
2015,03,28,03,26,11.30
2015,03,28,03,27,11.30
2015,03,28,03,28,11.30
2015,03,28,03,29,11.30
2015,03,28,03,30,11.30
2015,03,28,03,31,11.30
2015,03,28,03,32,11.30
2015,03,28,03,33,11.40
2015,03,28,03,34,11.40
2015,03,28,03,35,11.40
2015,03,28,03,36,11.30
2015,03,28,03,37,11.30
2015,03,28,03,38,11.40
2015,03,28,03,39,11.40
2015,03,28,03,40,11.40
2015,03,28,03,41,11.40
2015,03,28,03,42,11.40
2015,03,28,03,43,11.40
2015,03,28,03,44,11.30
2015,03,28,03,45,11.20
2015,03,28,03,46,11.00
2015,03,28,03,47,10.90
2015,03,28,03,48,10.70
2015,03,28,03,49,10.60
2015,03,28,03,50,10.40
2015,03,28,03,51,10.20
2015,03,28,03,52,10.00
2015,03,28,03,53,9.90
2015,03,28,03,54,9.80
2015,03,28,03,55,9.70
2015,03,28,03,56,9.60
2015,03,28,03,57,9.50
2015,03,28,03,58,9.40
2015,03,28,03,59,9.30
2015,03,28,04,00,9.30
2015,03,28,04,01,9.20
2015,03,28,04,02,9.20
2015,03,28,04,03,9.20
2015,03,28,04,04,9.20
2015,03,28,04,05,9.20
2015,03,28,04,06,9.10
2015,03,28,04,07,9.10
2015,03,28,04,08,9.10
2015,03,28,04,09,9.10
2015,03,28,04,10,9.10
2015,03,28,04,11,9.10
2015,03,28,04,12,9.10
2015,03,28,04,13,9.10
2015,03,28,04,14,9.10
2015,03,28,04,15,9.10
2015,03,28,04,16,9.10
2015,03,28,04,17,9.10
2015,03,28,04,18,9.10
2015,03,28,04,19,9.20
2015,03,28,04,20,9.20
2015,03,28,04,21,9.20
2015,03,28,04,22,9.20
2015,03,28,04,23,9.20
2015,03,28,04,24,9.20
2015,03,28,04,25,9.20
2015,03,28,04,26,9.20
2015,03,28,04,27,9.20
2015,03,28,04,28,9.20
2015,03,28,04,29,9.20
2015,03,28,04,30,9.20
2015,03,28,04,31,9.20
2015,03,28,04,32,9.20
2015,03,28,04,33,9.20
2015,03,28,04,34,9.20
2015,03,28,04,35,9.20
2015,03,28,04,36,9.10
2015,03,28,04,37,9.10
2015,03,28,04,38,9.10
2015,03,28,04,39,9.10
2015,03,28,04,40,9.10
2015,03,28,04,41,9.10
2015,03,28,04,42,9.10
2015,03,28,04,43,9.10
2015,03,28,04,44,9.10
2015,03,28,04,45,9.10
2015,03,28,04,46,9.10
2015,03,28,04,47,9.10
2015,03,28,04,48,9.10
2015,03,28,04,49,9.10
2015,03,28,04,50,9.10
2015,03,28,04,51,9.00
2015,03,28,04,52,9.00
2015,03,28,04,53,8.90
2015,03,28,04,54,8.90
2015,03,28,04,55,8.80
2015,03,28,04,56,8.80
2015,03,28,04,57,8.80
2015,03,28,04,58,8.80
2015,03,28,04,59,8.80
2015,03,28,05,00,8.80
2015,03,28,05,01,8.80
2015,03,28,05,02,8.80
2015,03,28,05,03,8.80
2015,03,28,05,04,8.80
2015,03,28,05,05,8.80
2015,03,28,05,06,8.80
2015,03,28,05,07,8.80
2015,03,28,05,08,8.80
2015,03,28,05,09,8.70
2015,03,28,05,10,8.70
2015,03,28,05,11,8.70
2015,03,28,05,12,8.70
2015,03,28,05,13,8.70
2015,03,28,05,14,8.70
2015,03,28,05,15,8.70
2015,03,28,05,16,8.70
2015,03,28,05,17,8.70
2015,03,28,05,18,8.70
2015,03,28,05,19,8.70
2015,03,28,05,20,8.70
2015,03,28,05,21,8.70
2015,03,28,05,22,8.70
2015,03,28,05,23,8.70
2015,03,28,05,24,8.70
2015,03,28,05,25,8.60
2015,03,28,05,26,8.60
2015,03,28,05,27,8.60
2015,03,28,05,28,8.60
2015,03,28,05,29,8.70
2015,03,28,05,30,8.70
2015,03,28,05,31,8.70
2015,03,28,05,32,8.70
2015,03,28,05,33,8.70
2015,03,28,05,34,8.70
2015,03,28,05,35,8.70
2015,03,28,05,36,8.70
2015,03,28,05,37,8.70
2015,03,28,05,38,8.70
2015,03,28,05,39,8.70
2015,03,28,05,40,8.70
2015,03,28,05,41,8.70
2015,03,28,05,42,8.70
2015,03,28,05,43,8.70
2015,03,28,05,44,8.70
2015,03,28,05,45,8.70
2015,03,28,05,46,8.70
2015,03,28,05,47,8.70
2015,03,28,05,48,8.70
2015,03,28,05,49,8.70
2015,03,28,05,50,8.70
2015,03,28,05,51,8.70
2015,03,28,05,52,8.70
2015,03,28,05,53,8.70
2015,03,28,05,54,8.70
2015,03,28,05,55,8.70
2015,03,28,05,56,8.70
2015,03,28,05,57,8.70
2015,03,28,05,58,8.70
2015,03,28,05,59,8.70
2015,03,28,06,00,8.80
2015,03,28,06,01,8.80
2015,03,28,06,02,8.70
2015,03,28,06,03,8.80
2015,03,28,06,04,8.80
2015,03,28,06,05,8.70
2015,03,28,06,06,8.70
2015,03,28,06,07,8.70
2015,03,28,06,08,8.70
2015,03,28,06,09,8.70
2015,03,28,06,10,8.80
2015,03,28,06,11,8.80
2015,03,28,06,12,8.80
2015,03,28,06,13,8.70
2015,03,28,06,14,8.70
2015,03,28,06,15,8.80
2015,03,28,06,16,8.70
2015,03,28,06,17,8.70
2015,03,28,06,18,8.70
2015,03,28,06,19,8.70
2015,03,28,06,20,8.70
2015,03,28,06,21,8.80
2015,03,28,06,22,8.70
2015,03,28,06,23,8.70
2015,03,28,06,24,8.70
2015,03,28,06,25,8.70
2015,03,28,06,26,8.70
2015,03,28,06,27,8.70
2015,03,28,06,28,8.70
2015,03,28,06,29,8.70
2015,03,28,06,30,8.70
2015,03,28,06,31,8.70
2015,03,28,06,32,8.70
2015,03,28,06,33,8.70
2015,03,28,06,34,8.70
2015,03,28,06,35,8.70
2015,03,28,06,36,8.70
2015,03,28,06,37,8.70
2015,03,28,06,38,8.70
2015,03,28,06,39,8.70
2015,03,28,06,40,8.70
2015,03,28,06,41,8.70
2015,03,28,06,42,8.70
2015,03,28,06,43,8.70
2015,03,28,06,44,8.70
2015,03,28,06,45,8.70
2015,03,28,06,46,8.70
2015,03,28,06,47,8.70
2015,03,28,06,48,8.70
2015,03,28,06,49,8.70
2015,03,28,06,50,8.70
2015,03,28,06,51,8.70
2015,03,28,06,52,8.70
2015,03,28,06,53,8.70
2015,03,28,06,54,8.70
2015,03,28,06,55,8.70
2015,03,28,06,56,8.70
2015,03,28,06,57,8.60
2015,03,28,06,58,8.60
2015,03,28,06,59,8.60
2015,03,28,07,00,8.60
2015,03,28,07,01,8.50
2015,03,28,07,02,8.50
2015,03,28,07,03,8.50
2015,03,28,07,04,8.40
2015,03,28,07,05,8.40
2015,03,28,07,06,8.40
2015,03,28,07,07,8.40
2015,03,28,07,08,8.30
2015,03,28,07,09,8.30
2015,03,28,07,10,8.30
2015,03,28,07,11,8.20
2015,03,28,07,12,8.20
2015,03,28,07,13,8.10
2015,03,28,07,14,8.10
2015,03,28,07,15,8.00
2015,03,28,07,16,7.90
2015,03,28,07,17,7.80
2015,03,28,07,18,7.80
2015,03,28,07,19,7.70
2015,03,28,07,20,7.70
2015,03,28,07,21,7.60
2015,03,28,07,22,7.60
2015,03,28,07,23,7.50
2015,03,28,07,24,7.40
2015,03,28,07,25,7.40
2015,03,28,07,26,7.40
2015,03,28,07,27,7.40
2015,03,28,07,28,7.40
2015,03,28,07,29,7.40
2015,03,28,07,30,7.40
2015,03,28,07,31,7.40
2015,03,28,07,32,7.30
2015,03,28,07,33,7.30
2015,03,28,07,34,7.30
2015,03,28,07,35,7.30
2015,03,28,07,36,7.20
2015,03,28,07,37,7.30
2015,03,28,07,38,7.30
2015,03,28,07,39,7.30
2015,03,28,07,40,7.30
2015,03,28,07,41,7.30
2015,03,28,07,42,7.30
2015,03,28,07,43,7.30
2015,03,28,07,44,7.30
2015,03,28,07,45,7.30
2015,03,28,07,46,7.30
2015,03,28,07,47,7.40
2015,03,28,07,48,7.40
2015,03,28,07,49,7.40
2015,03,28,07,50,7.40
2015,03,28,07,51,7.50
2015,03,28,07,52,7.60
2015,03,28,07,53,7.60
2015,03,28,07,54,7.70
2015,03,28,07,55,7.80
2015,03,28,07,56,7.80
2015,03,28,07,57,7.90
2015,03,28,07,58,8.00
2015,03,28,07,59,8.10
2015,03,28,08,00,8.20
2015,03,28,08,01,8.30
2015,03,28,08,02,8.30
2015,03,28,08,03,8.30
2015,03,28,08,04,8.40
2015,03,28,08,05,8.50
2015,03,28,08,06,8.60
2015,03,28,08,07,8.60
2015,03,28,08,08,8.70
2015,03,28,08,09,8.80
2015,03,28,08,10,8.80
2015,03,28,08,11,8.90
2015,03,28,08,12,9.00
2015,03,28,08,13,9.00
2015,03,28,08,14,9.10
2015,03,28,08,15,9.10
2015,03,28,08,16,9.20
2015,03,28,08,17,9.30
2015,03,28,08,18,9.30
2015,03,28,08,19,9.40
2015,03,28,08,20,9.40
2015,03,28,08,21,9.40
2015,03,28,08,22,9.50
2015,03,28,08,23,9.50
2015,03,28,08,24,9.60
2015,03,28,08,25,9.60
2015,03,28,08,26,9.70
2015,03,28,08,27,9.70
2015,03,28,08,28,9.70
2015,03,28,08,29,9.80
2015,03,28,08,30,9.80
2015,03,28,08,31,9.80
2015,03,28,08,32,9.80
2015,03,28,08,33,9.90
2015,03,28,08,34,9.90
2015,03,28,08,35,9.90
2015,03,28,08,36,10.00
2015,03,28,08,37,10.10
2015,03,28,08,38,10.10
2015,03,28,08,39,10.10
2015,03,28,08,40,10.10
2015,03,28,08,41,10.10
2015,03,28,08,42,10.10
2015,03,28,08,43,10.20
2015,03,28,08,44,10.20
2015,03,28,08,45,10.20
2015,03,28,08,46,10.30
2015,03,28,08,47,10.30
2015,03,28,08,48,10.30
2015,03,28,08,49,10.40
2015,03,28,08,50,10.50
2015,03,28,08,51,10.50
2015,03,28,08,52,10.60
2015,03,28,08,53,10.50
2015,03,28,08,54,10.50
2015,03,28,08,55,10.50
2015,03,28,08,56,10.50
2015,03,28,08,57,10.50
2015,03,28,08,58,10.60
2015,03,28,08,59,10.60
2015,03,28,09,00,10.70
2015,03,28,09,01,10.70
2015,03,28,09,02,10.70
2015,03,28,09,03,10.80
2015,03,28,09,04,10.80
2015,03,28,09,05,10.80
2015,03,28,09,06,10.80
2015,03,28,09,07,10.80
2015,03,28,09,08,10.80
2015,03,28,09,09,10.80
2015,03,28,09,10,10.80
2015,03,28,09,11,10.80
2015,03,28,09,12,10.90
2015,03,28,09,13,10.90
2015,03,28,09,14,10.80
2015,03,28,09,15,10.90
2015,03,28,09,16,10.90
2015,03,28,09,17,11.00
2015,03,28,09,18,11.10
2015,03,28,09,19,11.10
2015,03,28,09,20,11.20
2015,03,28,09,21,11.20
2015,03,28,09,22,11.20
2015,03,28,09,23,11.20
2015,03,28,09,24,11.30
2015,03,28,09,25,11.30
2015,03,28,09,26,11.30
2015,03,28,09,27,11.40
2015,03,28,09,28,11.40
2015,03,28,09,29,11.30
2015,03,28,09,30,11.30
2015,03,28,09,31,11.30
2015,03,28,09,32,11.40
2015,03,28,09,33,11.30
2015,03,28,09,34,11.30
2015,03,28,09,35,11.20
2015,03,28,09,36,11.20
2015,03,28,09,37,11.20
2015,03,28,09,38,11.20
2015,03,28,09,39,11.20
2015,03,28,09,40,11.20
2015,03,28,09,41,11.20
2015,03,28,09,42,11.20
2015,03,28,09,43,11.20
2015,03,28,09,44,11.20
2015,03,28,09,45,11.10
2015,03,28,09,46,11.10
2015,03,28,09,47,11.10
2015,03,28,09,48,11.00
2015,03,28,09,49,11.00
2015,03,28,09,50,11.00
2015,03,28,09,51,11.00
2015,03,28,09,52,11.00
2015,03,28,09,53,10.90
2015,03,28,09,54,10.90
2015,03,28,09,55,10.90
2015,03,28,09,56,10.80
2015,03,28,09,57,10.80
2015,03,28,09,58,10.90
2015,03,28,09,59,10.90
2015,03,28,10,00,10.90
2015,03,28,10,01,11.00
2015,03,28,10,02,11.00
2015,03,28,10,03,10.90
2015,03,28,10,04,10.90
2015,03,28,10,05,10.90
2015,03,28,10,06,10.90
2015,03,28,10,07,11.00
2015,03,28,10,08,11.00
2015,03,28,10,09,11.00
2015,03,28,10,10,11.00
2015,03,28,10,11,11.00
2015,03,28,10,12,11.10
2015,03,28,10,13,11.10
2015,03,28,10,14,11.10
2015,03,28,10,15,11.10
2015,03,28,10,16,11.20
2015,03,28,10,17,11.20
2015,03,28,10,18,11.20
2015,03,28,10,19,11.20
2015,03,28,10,20,11.20
2015,03,28,10,21,11.20
2015,03,28,10,22,11.20
2015,03,28,10,23,11.30
2015,03,28,10,24,11.30
2015,03,28,10,25,11.30
2015,03,28,10,26,11.30
2015,03,28,10,27,11.30
2015,03,28,10,28,11.40
2015,03,28,10,29,11.40
2015,03,28,10,30,11.50
2015,03,28,10,31,11.50
2015,03,28,10,32,11.60
2015,03,28,10,33,11.60
2015,03,28,10,34,11.60
2015,03,28,10,35,11.60
2015,03,28,10,36,11.70
2015,03,28,10,37,11.60
2015,03,28,10,38,11.60
2015,03,28,10,39,11.50
2015,03,28,10,40,11.50
2015,03,28,10,41,11.50
2015,03,28,10,42,11.50
2015,03,28,10,43,11.50
2015,03,28,10,44,11.50
2015,03,28,10,45,11.50
2015,03,28,10,46,11.50
2015,03,28,10,47,11.60
2015,03,28,10,48,11.60
2015,03,28,10,49,11.60
2015,03,28,10,50,11.60
2015,03,28,10,51,11.70
2015,03,28,10,52,11.70
2015,03,28,10,53,11.70
2015,03,28,10,54,11.70
2015,03,28,10,55,11.70
2015,03,28,10,56,11.70
2015,03,28,10,57,11.70
2015,03,28,10,58,11.60
2015,03,28,10,59,11.60
2015,03,28,11,00,11.60
2015,03,28,11,01,11.50
2015,03,28,11,02,11.50
2015,03,28,11,03,11.40
2015,03,28,11,04,11.40
2015,03,28,11,05,11.40
2015,03,28,11,06,11.50
2015,03,28,11,07,11.50
2015,03,28,11,08,11.50
2015,03,28,11,09,11.50
2015,03,28,11,10,11.50
2015,03,28,11,11,11.40
2015,03,28,11,12,11.40
2015,03,28,11,13,11.30
2015,03,28,11,14,11.30
2015,03,28,11,15,11.30
2015,03,28,11,16,11.20
2015,03,28,11,17,11.20
2015,03,28,11,18,11.10
2015,03,28,11,19,11.10
2015,03,28,11,20,11.10
2015,03,28,11,21,11.00
2015,03,28,11,22,11.00
2015,03,28,11,23,11.00
2015,03,28,11,24,10.90
2015,03,28,11,25,10.80
2015,03,28,11,26,10.80
2015,03,28,11,27,10.80
2015,03,28,11,28,10.80
2015,03,28,11,29,10.80
2015,03,28,11,30,10.80
2015,03,28,11,31,10.80
2015,03,28,11,32,10.80
2015,03,28,11,33,10.80
2015,03,28,11,34,10.80
2015,03,28,11,35,10.80
2015,03,28,11,36,10.80
2015,03,28,11,37,10.80
2015,03,28,11,38,10.80
2015,03,28,11,39,10.80
2015,03,28,11,40,10.80
2015,03,28,11,41,10.80
2015,03,28,11,42,10.80
2015,03,28,11,43,10.80
2015,03,28,11,44,10.80
2015,03,28,11,45,10.80
2015,03,28,11,46,10.80
2015,03,28,11,47,10.80
2015,03,28,11,48,10.80
2015,03,28,11,49,10.80
2015,03,28,11,50,10.80
2015,03,28,11,51,10.80
2015,03,28,11,52,10.80
2015,03,28,11,53,10.80
2015,03,28,11,54,10.80
2015,03,28,11,55,10.80
2015,03,28,11,56,10.80
2015,03,28,11,57,10.80
2015,03,28,11,58,10.70
2015,03,28,11,59,10.70
2015,03,28,12,00,10.70
2015,03,28,12,01,10.70
2015,03,28,12,02,10.80
2015,03,28,12,03,10.80
2015,03,28,12,04,10.80
2015,03,28,12,05,10.80
2015,03,28,12,06,10.80
2015,03,28,12,07,10.80
2015,03,28,12,08,10.80
2015,03,28,12,09,10.80
2015,03,28,12,10,10.80
2015,03,28,12,11,10.90
2015,03,28,12,12,10.80
2015,03,28,12,13,10.90
2015,03,28,12,14,10.90
2015,03,28,12,15,10.90
2015,03,28,12,16,10.90
2015,03,28,12,17,10.90
2015,03,28,12,18,10.90
2015,03,28,12,19,11.00
2015,03,28,12,20,11.00
2015,03,28,12,21,11.00
2015,03,28,12,22,11.00
2015,03,28,12,23,11.00
2015,03,28,12,24,11.00
2015,03,28,12,25,11.00
2015,03,28,12,26,11.10
2015,03,28,12,27,11.10
2015,03,28,12,28,11.00
2015,03,28,12,29,11.00
2015,03,28,12,30,11.00
2015,03,28,12,31,11.00
2015,03,28,12,32,11.00
2015,03,28,12,33,11.00
2015,03,28,12,34,11.10
2015,03,28,12,35,11.10
2015,03,28,12,36,11.10
2015,03,28,12,37,11.10
2015,03,28,12,38,11.20
2015,03,28,12,39,11.20
2015,03,28,12,40,11.20
2015,03,28,12,41,11.20
2015,03,28,12,42,11.30
2015,03,28,12,43,11.30
2015,03,28,12,44,11.30
2015,03,28,12,45,11.30
2015,03,28,12,46,11.30
2015,03,28,12,47,11.30
2015,03,28,12,48,11.30
2015,03,28,12,49,11.30
2015,03,28,12,50,11.30
2015,03,28,12,51,11.30
2015,03,28,12,52,11.30
2015,03,28,12,53,11.30
2015,03,28,12,54,11.30
2015,03,28,12,55,11.30
2015,03,28,12,56,11.30
2015,03,28,12,57,11.20
2015,03,28,12,58,11.20
2015,03,28,12,59,11.20
2015,03,28,13,00,11.20
2015,03,28,13,01,11.20
2015,03,28,13,02,11.20
2015,03,28,13,03,11.20
2015,03,28,13,04,11.10
2015,03,28,13,05,11.10
2015,03,28,13,06,11.10
2015,03,28,13,07,11.10
2015,03,28,13,08,11.10
2015,03,28,13,09,11.10
2015,03,28,13,10,11.10
2015,03,28,13,11,11.20
2015,03,28,13,12,11.20
2015,03,28,13,13,11.20
2015,03,28,13,14,11.20
2015,03,28,13,15,11.20
2015,03,28,13,16,11.10
2015,03,28,13,17,11.10
2015,03,28,13,18,11.10
2015,03,28,13,19,11.10
2015,03,28,13,20,11.10
2015,03,28,13,21,11.10
2015,03,28,13,22,11.20
2015,03,28,13,23,11.20
2015,03,28,13,24,11.20
2015,03,28,13,25,11.20
2015,03,28,13,26,11.20
2015,03,28,13,27,11.30
2015,03,28,13,28,11.20
2015,03,28,13,29,11.20
2015,03,28,13,30,11.20
2015,03,28,13,31,11.20
2015,03,28,13,32,11.20
2015,03,28,13,33,11.20
2015,03,28,13,34,11.20
2015,03,28,13,35,11.20
2015,03,28,13,36,11.20
2015,03,28,13,37,11.10
2015,03,28,13,38,11.10
2015,03,28,13,39,11.00
2015,03,28,13,40,11.00
2015,03,28,13,41,10.90
2015,03,28,13,42,10.90
2015,03,28,13,43,10.80
2015,03,28,13,44,10.80
2015,03,28,13,45,10.80
2015,03,28,13,46,10.70
2015,03,28,13,47,10.70
2015,03,28,13,48,10.70
2015,03,28,13,49,10.70
2015,03,28,13,50,10.70
2015,03,28,13,51,10.70
2015,03,28,13,52,10.70
2015,03,28,13,53,10.70
2015,03,28,13,54,10.70
2015,03,28,13,55,10.70
2015,03,28,13,56,10.70
2015,03,28,13,57,10.80
2015,03,28,13,58,10.80
2015,03,28,13,59,10.80
2015,03,28,14,00,10.80
2015,03,28,14,01,10.80
2015,03,28,14,02,10.80
2015,03,28,14,03,10.80
2015,03,28,14,04,10.80
2015,03,28,14,05,10.80
2015,03,28,14,06,10.80
2015,03,28,14,07,10.80
2015,03,28,14,08,10.70
2015,03,28,14,09,10.70
2015,03,28,14,10,10.70
2015,03,28,14,11,10.70
2015,03,28,14,12,10.70
2015,03,28,14,13,10.70
2015,03,28,14,14,10.70
2015,03,28,14,15,10.70
2015,03,28,14,16,10.70
2015,03,28,14,17,10.60
2015,03,28,14,18,10.60
2015,03,28,14,19,10.60
2015,03,28,14,20,10.60
2015,03,28,14,21,10.60
2015,03,28,14,22,10.70
2015,03,28,14,23,10.70
2015,03,28,14,24,10.70
2015,03,28,14,25,10.70
2015,03,28,14,26,10.70
2015,03,28,14,27,10.70
2015,03,28,14,28,10.70
2015,03,28,14,29,10.80
2015,03,28,14,30,10.80
2015,03,28,14,31,10.80
2015,03,28,14,32,10.80
2015,03,28,14,33,10.90
2015,03,28,14,34,10.90
2015,03,28,14,35,11.00
2015,03,28,14,36,11.00
2015,03,28,14,37,11.00
2015,03,28,14,38,11.10
2015,03,28,14,39,11.10
2015,03,28,14,40,11.20
2015,03,28,14,41,11.20
2015,03,28,14,42,11.30
2015,03,28,14,43,11.40
2015,03,28,14,44,11.50
2015,03,28,14,45,11.60
2015,03,28,14,46,11.60
2015,03,28,14,47,11.70
2015,03,28,14,48,11.90
2015,03,28,14,49,12.10
2015,03,28,14,50,12.20
2015,03,28,14,51,12.30
2015,03,28,14,52,12.30
2015,03,28,14,53,12.30
2015,03,28,14,54,12.30
2015,03,28,14,55,12.40
2015,03,28,14,56,12.40
2015,03,28,14,57,12.50
2015,03,28,14,58,12.50
2015,03,28,14,59,12.60
2015,03,28,15,00,12.70
2015,03,28,15,01,12.80
2015,03,28,15,02,13.00
2015,03,28,15,03,13.10
2015,03,28,15,04,13.20
2015,03,28,15,05,13.30
2015,03,28,15,06,13.30
2015,03,28,15,07,13.40
2015,03,28,15,08,13.60
2015,03,28,15,09,13.70
2015,03,28,15,10,13.80
2015,03,28,15,11,13.80
2015,03,28,15,12,13.80
2015,03,28,15,13,13.80
2015,03,28,15,14,13.80
2015,03,28,15,15,13.80
2015,03,28,15,16,13.80
2015,03,28,15,17,13.80
2015,03,28,15,18,13.80
2015,03,28,15,19,13.80
2015,03,28,15,20,13.80
2015,03,28,15,21,13.80
2015,03,28,15,22,13.80
2015,03,28,15,23,13.80
2015,03,28,15,24,13.90
2015,03,28,15,25,13.90
2015,03,28,15,26,13.80
2015,03,28,15,27,13.80
2015,03,28,15,28,13.80
2015,03,28,15,29,13.80
2015,03,28,15,30,13.80
2015,03,28,15,31,13.70
2015,03,28,15,32,13.70
2015,03,28,15,33,13.70
2015,03,28,15,34,13.70
2015,03,28,15,35,13.60
2015,03,28,15,36,13.60
2015,03,28,15,37,13.50
2015,03,28,15,38,13.50
2015,03,28,15,39,13.40
2015,03,28,15,40,13.40
2015,03,28,15,41,13.30
2015,03,28,15,42,13.30
2015,03,28,15,43,13.40
2015,03,28,15,44,13.40
2015,03,28,15,45,13.40
2015,03,28,15,46,13.40
2015,03,28,15,47,13.50
2015,03,28,15,48,13.60
2015,03,28,15,49,13.70
2015,03,28,15,50,13.80
2015,03,28,15,51,13.90
2015,03,28,15,52,14.00
2015,03,28,15,53,14.00
2015,03,28,15,54,14.10
2015,03,28,15,55,14.00
2015,03,28,15,56,14.00
2015,03,28,15,57,14.00
2015,03,28,15,58,14.00
2015,03,28,15,59,14.00
2015,03,28,16,00,14.00
2015,03,28,16,01,14.00
2015,03,28,16,02,13.90
2015,03,28,16,03,13.90
2015,03,28,16,04,13.90
2015,03,28,16,05,13.80
2015,03,28,16,06,13.70
2015,03,28,16,07,13.60
2015,03,28,16,08,13.50
2015,03,28,16,09,13.40
2015,03,28,16,10,13.30
2015,03,28,16,11,13.30
2015,03,28,16,12,13.20
2015,03,28,16,13,13.20
2015,03,28,16,14,13.10
2015,03,28,16,15,13.10
2015,03,28,16,16,13.10
2015,03,28,16,17,13.10
2015,03,28,16,18,13.00
2015,03,28,16,19,13.00
2015,03,28,16,20,13.00
2015,03,28,16,21,13.00
2015,03,28,16,22,13.00
2015,03,28,16,23,13.00
2015,03,28,16,24,13.00
2015,03,28,16,25,13.00
2015,03,28,16,26,13.00
2015,03,28,16,27,13.00
2015,03,28,16,28,13.00
2015,03,28,16,29,13.00
2015,03,28,16,30,13.00
2015,03,28,16,31,13.00
2015,03,28,16,32,13.10
2015,03,28,16,33,13.10
2015,03,28,16,34,13.10
2015,03,28,16,35,13.10
2015,03,28,16,36,13.10
2015,03,28,16,37,13.10
2015,03,28,16,38,13.10
2015,03,28,16,39,13.10
2015,03,28,16,40,13.10
2015,03,28,16,41,13.20
2015,03,28,16,42,13.20
2015,03,28,16,43,13.20
2015,03,28,16,44,13.20
2015,03,28,16,45,13.20
2015,03,28,16,46,13.20
2015,03,28,16,47,13.20
2015,03,28,16,48,13.20
2015,03,28,16,49,13.20
2015,03,28,16,50,13.20
2015,03,28,16,51,13.20
2015,03,28,16,52,13.30
2015,03,28,16,53,13.30
2015,03,28,16,54,13.30
2015,03,28,16,55,13.30
2015,03,28,16,56,13.30
2015,03,28,16,57,13.30
2015,03,28,16,58,13.30
2015,03,28,16,59,13.30
2015,03,28,17,00,13.30
2015,03,28,17,01,13.30
2015,03,28,17,02,13.20
2015,03,28,17,03,13.20
2015,03,28,17,04,13.20
2015,03,28,17,05,13.20
2015,03,28,17,06,13.10
2015,03,28,17,07,13.10
2015,03,28,17,08,13.10
2015,03,28,17,09,13.10
2015,03,28,17,10,13.10
2015,03,28,17,11,13.10
2015,03,28,17,12,13.00
2015,03,28,17,13,13.10
2015,03,28,17,14,13.00
2015,03,28,17,15,13.00
2015,03,28,17,16,12.90
2015,03,28,17,17,12.90
2015,03,28,17,18,12.90
2015,03,28,17,19,12.90
2015,03,28,17,20,12.90
2015,03,28,17,21,12.80
2015,03,28,17,22,12.80
2015,03,28,17,23,12.80
2015,03,28,17,24,12.80
2015,03,28,17,25,12.80
2015,03,28,17,26,12.80
2015,03,28,17,27,12.80
2015,03,28,17,28,12.80
2015,03,28,17,29,12.70
2015,03,28,17,30,12.70
2015,03,28,17,31,12.70
2015,03,28,17,32,12.70
2015,03,28,17,33,12.70
2015,03,28,17,34,12.70
2015,03,28,17,35,12.70
2015,03,28,17,36,12.70
2015,03,28,17,37,12.70